Retour au catalogue

OPS 9443

DSCS 2-13

ActifMilitaireGEO
NORAD 11621·PAYLOAD·🇺🇸 United States

Lancé Nov 21, 1979 depuis Cape Canaveral Space Force Station

Loading…

TLE

FraisSource: Space-Track

Époque: Sep 14, 2026, 04:33 UTC

1 11621U 79098A   26257.18965075 -.00000089  00000-0  00000-0 0  9995
2 11621  10.0792 312.5060 0006286 139.7788 235.9037  0.95598269616256

Suivez OPS 9443 en temps réel avec AllMySat

Download on the App Store